Weather Roundup
Issued by NWS

Home | Current Version | Previous Version | Graphics & Text | Print | Product List | Glossary Off
Versions: 1 2 3 4 5 6 7 8 9 10 11 12 13 14 15 16 17 18 19 20 21 22 23 24 25 26 27 28 29 30 31 32 33 34 35 36 37 38 39 40 41 42 43 44 45 46 47 48 49 50

000
NZUS93 KARX 270910
HRRWXR

CURRENT HOURLY OBSERVATIONS ACROSS
MUCH OF THE UPPER MISSISSIPPI VALLEY
NATIONAL WEATHER SERVICE LA CROSSE WI
400 AM CDT WED AUG 27 2014


...SOUTHEAST MINNESOTA...


CITY           SKY/WX    TMP DP  RH WIND       PRES   REMARKS
ROCHESTER      CLOUDY    63  57  81 CALM      30.20S
ROCHESTER/MAYO CLOUDY    62  58  87 CALM      30.19S
WINONA         CLOUDY    61  59  94 N3        30.18S
AUSTIN         MOCLDY    59  55  88 NE3       30.17F
ALBERT LEA     CLOUDY    61  57  88 CALM      30.18S
DODGE CENTER   CLOUDY    61  59  94 NE6       30.18S
PRESTON        MOCLDY    58  58 100 CALM      30.19S
OWATONNA       CLOUDY    63  57  82 CALM      30.19S
FARIBAULT      CLOUDY    64  55  72 NE5       30.18F
$$

...ELSEWHERE IN MINNESOTA...


CITY           SKY/WX    TMP DP  RH WIND       PRES   REMARKS
MINNEAPOLIS    MOCLDY    62  57  83 NE7       30.18F
INTNL FALLS    PTCLDY    36  35  96 CALM      30.19S
DULUTH         MOCLDY    53  49  86 NW6       30.19S
RED WING       MOCLDY    63  55  77 CALM      30.18S
REDWOOD FALLS  CLOUDY    62  57  83 E3        30.18S
MANKATO        CLOUDY    64  55  72 NE8       30.18S
WORTHINGTON    CLEAR     55  54  94 CALM      30.20S
FAIRMONT       PTCLDY    57  54  88 N3        30.19R
$$

...SOUTHWEST WISCONSIN...


CITY           SKY/WX    TMP DP  RH WIND       PRES   REMARKS
LA CROSSE      PTCLDY    62  58  86 CALM      30.16F
PRAIRIE DU CHI PTCLDY    61  57  88 CALM      30.15F
BOSCOBEL       CLOUDY    63  60  90 CALM      30.16S
LONE ROCK      CLOUDY    68  57  68 CALM      30.16S
PLATTEVILLE    MOCLDY    63  60  91 N5        30.16F
FORT MC COY    PTCLDY    57  56  95 CALM      30.18S
CAMP DOUGLAS   MOCLDY    56  56 100 NW5       30.17S
VIROQUA        FAIR      58  58  97 N3        30.17F
WIS DELLS      CLOUDY    62  56  81 CALM      30.16F
$$

...ELSEWHERE IN WISCONSIN...


CITY           SKY/WX    TMP DP  RH WIND       PRES   REMARKS
MILWAUKEE      CLOUDY    64  58  80 NW3       30.13S
MADISON        CLOUDY    63  60  90 NW3       30.16S
GREEN BAY      CLOUDY    60  55  83 N6        30.16S
EAU CLAIRE     CLOUDY    60  58  92 N3        30.18S
BLACK RVR FLS  CLOUDY    59  59 100 CALM      30.16F
MEDFORD        LGT RAIN  56  55  96 CALM      30.18F
WAUSAU         LGT RAIN  59  56  89 NW3       30.17S
WIS RAPIDS     CLOUDY    60  55  83 N5        30.18F
MARSHFIELD     LGT RAIN  60  54  80 N5        30.18S
RICE LAKE      LGT RAIN  58  55  89 CALM      30.21S
$$

...NORTHEAST IOWA...


CITY           SKY/WX    TMP DP  RH WIND       PRES   REMARKS
WATERLOO       CLEAR     62  59  90 NE3       30.14S
DUBUQUE        CLOUDY    64  60  87 NE8       30.15F
DECORAH        CLEAR     59  57  94 CALM      30.16F
MASON CITY     CLEAR     56  55  97 CALM      30.19S
CHARLES CITY   CLEAR     59  57  94 NE5       30.17F
OELWEIN        PTCLDY    61  59  94 NE5       30.17S
$$

...ELSEWHERE IN IOWA...


CITY           SKY/WX    TMP DP  RH WIND       PRES   REMARKS
DES MOINES     PTCLDY    69  62  78 NE6       30.12S
IOWA CITY      CLOUDY    69  63  81 NE6       30.14S
FORT DODGE     MOCLDY    63  59  88 E5        30.16S
MARSHALLTOWN   MOCLDY    65  63  93 E3        30.14F
CEDAR RAPIDS   LGT RAIN  67  64  90 NE7       30.14R
$$

...NORTHERN ILLINOIS...


CITY           SKY/WX    TMP DP  RH WIND       PRES   REMARKS
CHICAGO-OHARE  CLOUDY    69  63  81 N6        30.11S
DUPAGE         MOCLDY    67  64  90 N6        30.12S
CHICAGO-MIDWAY CLOUDY    73  64  73 NE6       30.11S
MOLINE         MOCLDY    71  64  78 NE7       30.11F
ROCKFORD       CLOUDY    67  58  72 NE6       30.15S
STERLING       CLOUDY    68  63  83 N3        30.13F
PEORIA         MOCLDY    74  67  78 NE3       30.10F
$$

NOTE: "FAIR" INDICATES FEW OR NO CLOUDS BELOW 12,000 FEET WITH NO
SIGNIFICANT WEATHER AND/OR OBSTRUCTIONS TO VISIBILITY. WIND
SPEEDS ARE IN MILES-PER-HOUR.



USA.gov is the U.S. government's official web portal to all federal, state and local government web resources and services.